Location: Daouli
(14.8671°N, 3.2030°W)
Time: 02:28:42
(UTC+00:00)

Cosmos 968 Rocket - Pass Details

Date: 29 October 2020
Orbit: 741 x 770 km, 74.0° (Epoch: 02 December)

Event Time Altitude Azimuth Distance (km) Brightness Sun altitude
Rises 18:25:36 0° 5° (N) 3,200 6.5 -10.4°
Reaches altitude 10° 18:28:20 10° 18° (NNE) 2,269 5.7 -11.0°
Maximum altitude 18:32:34 26° 74° (ENE) 1,452 4.3 -12.0°
Drops below altitude 10° 18:36:46 10° 129° (SE) 2,253 5.6 -13.0°
Sets 18:39:28 0° 142° (SE) 3,172 6.4 -13.7°
